www.pogodaiklimat.ru

Погода и климат >> Архив погоды >> Япония >> Миякедзима


ПОГОДА на Миякедзиме

  • Прогноз погоды на Миякедзиме
  • Монитор погоды на Миякедзиме

АРХИВ ПОГОДЫ на Миякедзиме

Время (UTC), дата Ветер
(напр.,м/с)
 
Видим.   Явления Облачность Т
(С)
Тd
(С)
f
(%)
Тe
(С)
Тes
(С)
Комфортность P
(гПа)
Po
(гПа)
Тmin
(С)
Tmax
(С)
R
(мм)
R24
(мм)
S
(см)
10 17.06 Ю 2 20 км н/о +19.9 +17.5 86 +23 +23 комфорт 1010.9 1006.2
11 17.06 Ю 3 20 км н/о +18.3 +16.5 89 +19 +19 1011.6 1006.9
12 17.06 Ю 3 20 км н/о +17.8 +16.0 89 +18 +18 1012.4 1007.7 +24.8
13 17.06 Ю 3 20 км н/о +17.7 +15.3 86 +18 +18 1012.4 1007.7
14 17.06 Ю 2 20 км н/о +16.6 +15.3 92 +17 +17 1012.1 1007.4
15 17.06 Ю 2 20 км н/о +17.5 +16.2 92 +18 +18 1012.4 1007.7
16 17.06 Ю 3 20 км н/о +17.3 +16.3 94 +17 +17 1012.3 1007.6
18 17.06 Ю 3 20 км н/о +18.3 +17.7 96 +19 +19 1012.3 1007.6
19 17.06 Ю 3 20 км н/о +18.6 +17.6 94 +20 +20 1012.7 1008.0
20 17.06 Ю 3 20 км н/о +18.5 +17.9 96 +20 +20 1012.9 1008.2
21 17.06 ЮВ 3 20 км н/о +19.9 +18.9 94 +23 +23 комфорт 1012.4 1007.7
22 17.06 В 1 20 км н/о +22.7 +18.5 77 +28 +28 душно 1012.9 1008.3
23 17.06 СВ 1 20 км н/о +23.3 +18.8 76 +30 +30 очень
душно
1012.7 1008.1
00 18.06 СЗ 1 20 км н/о +23.6 +18.0 71 +28 +28 душно 1012.8 1008.2 +16.5
01 18.06 З 2 20 км н/о +24.3 +19.2 73 +29 +29 душно 1012.6 1008.0
02 18.06 З 2 20 км н/о +23.9 +19.2 75 +29 +29 душно 1012.4 1007.8
03 18.06 З 5 20 км н/о +24.9 +19.1 70 +30 +30 душно 1012.0 1007.4
04 18.06 З 5 20 км н/о +24.5 +19.6 74 +30 +30 очень
душно
1011.7 1007.1
05 18.06 З 4 20 км н/о +24.0 +19.9 78 +29 +29 душно 1011.4 1006.8
06 18.06 З 4 20 км н/о +23.6 +20.0 80 +29 +29 душно 1011.4 1006.8
07 18.06 ЮЗ 3 20 км н/о +23.2 +19.4 79 +30 +30 очень
душно
1011.4 1006.8
08 18.06 ЮЗ 3 20 км н/о +22.8 +19.4 81 +29 +29 очень
душно
1011.1 1006.5
09 18.06 ЮЗ 3 20 км н/о +22.2 +18.4 79 +27 +27 душно 1011.0 1006.4
10 18.06 ЮЗ 3 20 км н/о +21.8 +18.4 81 +27 +27 душно 1011.0 1006.4
11 18.06 ЮЗ 3 20 км н/о +21.6 +18.2 81 +26 +26 душно 1011.2 1006.6
12 18.06 ЮЗ 3 20 км н/о +21.4 +18.2 82 +26 +26 душно 1011.4 1006.8 +25.4
13 18.06 ЮЗ 3 20 км н/о +21.2 +18.0 82 +25 +25 комфорт 1011.4 1006.8
14 18.06 ЮЗ 2 20 км н/о +21.6 +18.6 83 +26 +26 душно 1011.1 1006.5
15 18.06 ЮЗ 2 20 км н/о +22.0 +19.2 84 +27 +27 душно 1010.6 1006.0
16 18.06 ЮЗ 3 20 км н/о +22.0 +19.0 83 +27 +27 душно 1010.1 1005.5
17 18.06 ЮЗ 3 20 км н/о +22.0 +18.8 82 +27 +27 душно 1009.9 1005.3
18 18.06 ЮЗ 4 20 км н/о +22.0 +18.6 81 +27 +27 душно 1009.6 1005.0
19 18.06 ЮЗ 3 20 км н/о +21.6 +18.2 81 +26 +26 душно 1009.6 1005.0
20 18.06 ЮЗ 3 20 км н/о +21.5 +18.1 81 +26 +26 душно 1009.7 1005.1
21 18.06 ЮЗ 3 20 км н/о +22.1 +18.5 80 +27 +27 душно 1009.8 1005.2
22 18.06 ЮЗ 3 20 км н/о +23.7 +19.9 79 +29 +29 душно 1009.6 1005.0
23 18.06 З 4 20 км н/о +24.4 +20.3 78 +30 +30 очень
душно
1009.5 1004.9
00 19.06 З 3 20 км н/о +25.5 +20.5 74 +32 +32 очень
душно
1009.2 1004.7 +20.9
01 19.06 ЮЗ 3 20 км н/о +26.1 +20.2 70 +32 +32 очень
душно
1008.8 1004.3
02 19.06 ЮЗ 5 20 км н/о +26.1 +20.9 73 +33 +33 очень
душно
1008.3 1003.8
03 19.06 ЮЗ 5 20 км н/о +25.7 +21.2 76 +32 +32 очень
душно
1007.6 1003.1
04 19.06 ЮЗ 4 20 км н/о +26.2 +21.2 74 +33 +33 очень
душно
1007.1 1002.6
05 19.06 З 5 20 км н/о +25.0 +20.9 78 +31 +31 очень
душно
1006.6 1002.1
06 19.06 З 5 20 км н/о +24.6 +20.5 78 +31 +31 очень
душно
1006.0 1001.5
07 19.06 ЮЗ 3 20 км н/о +24.6 +20.5 78 +31 +31 очень
душно
1006.0 1001.5
08 19.06 ЮЗ 3 20 км н/о +24.4 +20.3 78 +30 +30 очень
душно
1005.5 1001.0
09 19.06 ЮЗ 3 20 км н/о +23.9 +20.0 79 +29 +29 душно 1005.7 1001.1
10 19.06 ЮЗ 4 20 км н/о +23.0 +20.0 83 +30 +30 очень
душно
1005.8 1001.2
11 19.06 Ю 3 20 км н/о +22.2 +19.2 83 +28 +28 душно 1006.0 1001.4
12 19.06 Ю 3 20 км н/о +22.0 +19.0 83 +27 +27 душно 1006.4 1001.8 +26.7
13 19.06 Ю 3 20 км н/о +21.1 +19.2 89 +26 +26 душно 1006.3 1001.7
14 19.06 Ю 3 20 км н/о +20.5 +19.3 93 +25 +25 комфорт 1006.0 1001.4
15 19.06 Ю 3 20 км н/о +20.4 +19.4 94 +25 +25 комфорт 1005.2 1000.6
16 19.06 Ю 2 20 км н/о +19.9 +18.9 94 +24 +24 комфорт 1004.7 1000.1
17 19.06 Ю 3 20 км н/о +19.4 +18.8 96 +22 +22 комфорт 1004.1 999.5
18 19.06 Ю 2 20 км н/о +19.2 +18.7 97 +22 +22 комфорт 1003.7 999.1
19 19.06 Ю 2 20 км н/о +19.6 +19.1 97 +23 +23 комфорт 1003.9 999.3
20 19.06 Ю 2 20 км н/о +19.8 +19.3 97 +24 +24 комфорт 1004.2 999.6
21 19.06 СВ 3 20 км н/о +22.6 +20.3 87 +29 +29 очень
душно
1004.4 999.8
22 19.06 СВ 3 20 км н/о +23.8 +20.2 80 +29 +29 душно 1004.8 1000.2
23 19.06 В 2 20 км н/о +24.4 +20.1 77 +30 +30 очень
душно
1005.1 1000.6
00 20.06 СВ 2 20 км н/о +25.5 +21.4 78 +32 +32 очень
душно
1005.4 1000.9 +19.2
01 20.06 СВ 3 20 км н/о +24.9 +20.8 78 +31 +31 очень
душно
1005.7 1001.2
02 20.06 СВ 3 20 км н/о +24.8 +19.6 73 +30 +30 душно 1005.8 1001.3
03 20.06 СВ 3 20 км н/о +24.9 +20.0 74 +30 +30 душно 1005.8 1001.3
04 20.06 СВ 4 20 км н/о +24.9 +20.8 78 +31 +31 очень
душно
1005.6 1001.1
05 20.06 СВ 4 20 км н/о +24.9 +21.6 82 +32 +32 очень
душно
1005.7 1001.2
06 20.06 В 3 20 км н/о +24.7 +20.6 78 +31 +31 очень
душно
1005.6 1001.1
07 20.06 В 3 20 км н/о +24.3 +20.4 79 +30 +30 очень
душно
1005.7 1001.1
08 20.06 В 3 20 км н/о +24.3 +21.2 83 +31 +31 очень
душно
1006.1 1001.5
09 20.06 Ю 2 20 км н/о +24.1 +21.0 83 +30 +30 очень
душно
1006.6 1002.0
10 20.06 ЮЗ 1 20 км н/о +22.4 +20.7 90 +29 +29 очень
душно
1007.4 1002.8
11 20.06 Ю 3 20 км н/о +21.5 +20.2 92 +27 +27 душно 1008.2 1003.6
12 20.06 Ю 2 20 км н/о +21.1 +19.8 92 +26 +26 душно 1008.6 1004.0 +25.6
13 20.06 Ю 2 18 км н/о +20.3 +19.5 95 +25 +25 комфорт 1009.2 1004.6
15 20.06 Ю 2 13 км н/о +20.7 +20.2 97 +26 +26 душно 1009.5 1004.9
16 20.06 Ю 3 14 км н/о +21.0 +20.2 95 +27 +27 душно 1009.1 1004.5
17 20.06 Ю 3 10 км н/о +20.7 +20.2 97 +26 +26 душно 1008.8 1004.2
18 20.06 Ю 3 20 км н/о +21.1 +19.2 89 +26 +26 душно 1008.9 1004.3
19 20.06 Ю 3 13 км н/о +21.1 +20.1 94 +26 +26 душно 1009.3 1004.7
20 20.06 Ю 3 20 км н/о +22.3 +20.0 87 +28 +28 душно 1009.5 1004.9
21 20.06 ЮЗ 3 20 км н/о +23.1 +20.8 87 +31 +31 очень
душно
1010.0 1005.4
22 20.06 ЮЗ 3 20 км н/о +24.3 +21.4 84 +31 +31 очень
душно
1010.1 1005.5
23 20.06 С 2 20 км н/о +25.4 +21.7 80 +33 +33 очень
душно
1010.2 1005.6
00 21.06 ЮЗ 3 20 км н/о +25.3 +21.4 79 +32 +32 очень
душно
1010.1 1005.5 +20.2
01 21.06 В 2 20 км н/о +25.1 +21.2 79 +32 +32 очень
душно
1010.1 1005.5
02 21.06 В 3 20 км н/о +26.0 +21.0 74 +33 +33 очень
душно
1009.8 1005.3
03 21.06 ЮВ 4 20 км н/о +26.0 +21.7 77 +33 +33 очень
душно
1010.0 1005.5
04 21.06 Ю 4 20 км слаб. дождь н/о +25.5 +21.0 76 +32 +32 очень
душно
1009.8 1005.3
05 21.06 ЮВ 4 20 км в посл. час дождь н/о +26.5 +20.4 69 +33 +33 очень
душно
1009.0 1004.5
06 21.06 С 2 20 км {дождь} н/о +26.0 +21.0 74 +33 +33 очень
душно
1009.1 1004.6 0.0
07 21.06 В 3 20 км н/о +25.4 +20.7 75 +32 +32 очень
душно
1008.7 1004.2
08 21.06 ЮЗ 2 20 км н/о +24.7 +19.3 72 +30 +30 очень
душно
1008.9 1004.3
09 21.06 ЮВ 2 20 км н/о +23.8 +19.7 78 +29 +29 душно 1008.9 1004.3
10 21.06 Ю 1 20 км н/о +22.3 +20.2 88 +29 +29 очень
душно
1009.3 1004.7
11 21.06 ЮВ 2 20 км н/о +20.9 +19.4 91 +26 +26 душно 1009.7 1005.1
12 21.06 ЮВ 2 20 км н/о +21.5 +19.3 87 +26 +26 душно 1009.6 1005.0 +27.2 0.0
13 21.06 ЮВ 3 20 км н/о +21.5 +20.2 92 +27 +27 душно 1009.7 1005.1
15 21.06 ЮВ 3 20 км н/о +22.6 +20.2 86 +29 +29 очень
душно
1008.7 1004.1
16 21.06 ЮВ 4 20 км н/о +22.9 +20.6 87 +30 +30 очень
душно
1007.8 1003.2
17 21.06 В 2 20 км слаб. дождь н/о +22.0 +20.8 93 +28 +28 душно 1007.2 1002.6
18 21.06 ЮВ 4 20 км в посл. час дождь н/о +22.2 +21.0 93 +29 +29 очень
душно
1006.7 1002.1 0.0
19 21.06 ЮВ 4 20 км слаб. дождь н/о +22.3 +21.1 93 +29 +29 очень
душно
1006.4 1001.8
20 21.06 ЮВ 4 20 км в посл. час дождь н/о +22.3 +20.8 91 +29 +29 очень
душно
1005.8 1001.2
21 21.06 ЮВ 3 20 км в посл. час дождь н/о +22.4 +20.9 91 +29 +29 очень
душно
1005.9 1001.3
22 21.06 ЮВ 4 20 км н/о +22.8 +21.3 91 +30 +30 очень
душно
1005.5 1000.9
23 21.06 ЮВ 6 20 км слаб. дождь н/о +21.2 +19.5 90 +26 +26 душно 1005.0 1000.4
00 22.06 ЮВ 8 20 км в посл. час дождь н/о +21.3 +19.2 88 +26 +26 душно 1004.3 999.7 +20.3 0.0
01 22.06 В 7 4900 м слаб. дождь н/о +21.4 +20.7 96 +27 +27 душно 1003.7 999.1
02 22.06 В 7 2900 м дождь н/о +20.9 +20.6 98 +26 +26 душно 1003.1 998.5
03 22.06 В 6 5000 м слаб. дождь н/о +21.6 +21.4 99 +28 +28 очень
душно
1001.8 997.2
04 22.06 В 7 4000 м слаб. дождь н/о +22.0 +22.0 100 +29 +29 очень
душно
1000.8 996.2
05 22.06 СВ 5 5000 м слаб. дождь н/о +22.3 +22.3 100 +30 +30 очень
душно
1000.0 995.4
06 22.06 СВ 9 8000 м слаб. дождь н/о +22.2 +22.2 100 +30 +30 очень
душно
999.7 995.1 17
07 22.06 СВ 6 2900 м слаб. дождь н/о +22.3 +22.3 100 +30 +30 очень
душно
999.2 994.6
08 22.06 СВ 12 3100 м слаб. дождь н/о +21.8 +21.8 100 +28 +28 душно 999.1 994.5
09 22.06 СВ 12 20 км в посл. час дождь н/о +22.0 +21.8 99 +29 +29 очень
душно
1000.1 995.5
10 22.06 СВ 9 20 км н/о +22.0 +21.2 95 +28 +28 душно 1000.9 996.3
11 22.06 СВ 5 20 км н/о +22.5 +21.1 92 +30 +30 очень
душно
1001.9 997.3
12 22.06 С 5 20 км {дождь} н/о +22.5 +20.6 89 +29 +29 очень
душно
1002.9 998.3 +22.8 21
13 22.06 С 6 20 км н/о +22.6 +20.9 90 +30 +30 очень
душно
1002.9 998.3
14 22.06 С 4 20 км н/о +22.5 +20.8 90 +29 +29 очень
душно
1003.7 999.1
15 22.06 С 3 20 км н/о +22.4 +20.7 90 +29 +29 очень
душно
1003.9 999.3
16 22.06 СВ 2 17 км н/о +22.3 +20.6 90 +29 +29 очень
душно
1003.5 998.9
17 22.06 С 2 20 км н/о +22.4 +20.7 90 +29 +29 очень
душно
1004.1 999.5
18 22.06 С 2 20 км н/о +22.3 +20.6 90 +29 +29 очень
душно
1004.9 1000.3
19 22.06 ЮВ 2 20 км н/о +21.3 +20.6 96 +27 +27 душно 1004.9 1000.3
20 22.06 ЮВ 3 20 км н/о +21.0 +20.2 95 +26 +26 душно 1005.2 1000.6
21 22.06 ЮВ 2 20 км н/о +20.9 +19.4 91 +26 +26 душно 1005.7 1001.1
22 22.06 Ю 3 20 км н/о +21.1 +19.8 92 +26 +26 душно 1005.6 1001.0
23 22.06 ЮВ 3 17 км слаб. дождь н/о +22.3 +20.9 92 +29 +29 очень
душно
1005.1 1000.5
00 23.06 В 4 13 км слаб. дождь н/о +22.6 +22.1 97 +30 +30 очень
душно
1004.3 999.7 +20.5 0.5
01 23.06 В 3 20 км слаб. дождь н/о +22.6 +21.8 95 +30 +30 очень
душно
1005.1 1000.5
02 23.06 В 3 8000 м слаб. дождь н/о +22.3 +22.0 98 +30 +30 очень
душно
1004.7 1000.1
03 23.06 В 4 8000 м дождь н/о +22.2 +21.7 97 +29 +29 очень
душно
1003.8 999.2
04 23.06 В 5 20 км слаб. дождь н/о +22.1 +21.3 95 +29 +29 очень
душно
1003.5 998.9
05 23.06 В 5 17 км слаб. дождь н/о +21.9 +20.7 93 +28 +28 душно 1003.2 998.6
06 23.06 СВ 5 20 км в посл. час дождь н/о +22.3 +20.8 91 +29 +29 очень
душно
1003.3 998.7 6
07 23.06 СВ 6 18 км слаб. дождь н/о +22.5 +21.0 91 +29 +29 очень
душно
1003.4 998.8
08 23.06 СВ 4 20 км в посл. час дождь н/о +22.7 +21.0 90 +30 +30 очень
душно
1004.3 999.7
09 23.06 В 4 20 км {дождь} н/о +22.2 +20.0 87 +28 +28 душно 1005.0 1000.4
10 23.06 ЮВ 3 20 км н/о +21.6 +20.1 91 +27 +27 душно 1006.2 1001.6
11 23.06 ЮВ 3 20 км н/о +21.8 +20.8 94 +28 +28 душно 1006.9 1002.3
12 23.06 Ю 2 20 км {дождь} н/о +21.7 +20.5 93 +27 +27 душно 1007.4 1002.8 +23.0 6
13 23.06 Ю 2 20 км слаб. дождь н/о +21.3 +20.6 96 +27 +27 душно 1007.6 1003.0
14 23.06 Ю 1 20 км слаб. дождь н/о +20.9 +20.7 99 +27 +27 душно 1007.6 1003.0
15 23.06 ЮВ 1 2000 м дождь н/о +20.7 +20.7 100 +27 +27 душно 1007.7 1003.1
16 23.06 В 4 10 км слаб. дождь н/о +20.9 +20.7 99 +26 +26 душно 1006.4 1001.8
17 23.06 В 2 18 км слаб. дождь н/о +20.8 +20.3 97 +26 +26 душно 1006.0 1001.4
18 23.06 ЮВ 3 20 км слаб. дождь н/о +20.8 +20.5 98 +26 +26 душно 1005.8 1001.2 7
19 23.06 В 6 16 км слаб. дождь н/о +21.0 +20.8 99 +26 +26 душно 1004.4 999.8
20 23.06 В 6 11 км слаб. дождь н/о +21.0 +20.8 99 +26 +26 душно 1005.0 1000.4
21 23.06 В 8 4400 м дождь н/о +20.8 +20.6 99 +25 +25 комфорт 1005.7 1001.1
22 23.06 В 7 16 км слаб. дождь н/о +21.1 +20.9 99 +26 +26 душно 1004.3 999.7
23 23.06 ЮВ 5 14 км слаб. дождь н/о +21.5 +21.2 98 +27 +27 душно 1004.8 1000.2
00 24.06 В 2 20 км в посл. час дождь н/о +22.5 +21.7 95 +30 +30 очень
душно
1006.1 1001.5 +20.5 16
01 24.06 С 7 3000 м дождь н/о +21.2 +20.9 98 +27 +27 душно 1007.2 1002.6
02 24.06 С 7 4300 м слаб. дождь н/о +20.7 +20.5 99 +25 +25 комфорт 1008.1 1003.5
03 24.06 С 7 17 км слаб. дождь н/о +21.0 +20.2 95 +26 +26 душно 1008.5 1003.9
04 24.06 С 7 16 км в посл. час дождь н/о +21.5 +20.0 91 +27 +27 душно 1009.2 1004.6
05 24.06 С 8 17 км н/о +21.3 +19.8 91 +26 +26 душно 1009.7 1005.1
06 24.06 С 6 20 км {дождь} н/о +21.2 +19.7 91 +26 +26 душно 1010.3 1005.7 9
07 24.06 СВ 5 20 км н/о +21.2 +19.3 89 +26 +26 душно 1010.7 1006.1
08 24.06 СВ 4 20 км н/о +21.6 +19.5 88 +27 +27 душно 1011.3 1006.7

 

Местоположение метеостанции Миякедзима (Япония): широта 34.12 долгота 139.51 высота над уровнем моря 37 м.

В архиве по умолчанию представлена погода на Миякедзиме за последнюю неделю. Архивные данные за месяц целиком и за предыдущие месяцы, начиная с января 2011 года, Вы можете получить, выбрав интересующий диапазон дат из раскрывающегося списка и нажав кнопку "Ввод!".


*Определитесь, кто Вы:
робот инопланетянин человек

Внимание! Время в таблицах - всемирное. Для получения местного времени необходимо прибавить поправку, которая равна 9 ч.

Смотрите также архив погоды в соседних городах и на ближайших метеорологических станциях:

Погода на Осиме (Япония) (71 км)
Погода в Иродзаки (Япония) (81 км)
Погода в Татеяме (Япония) (101 км)
Погода в Аджиро (Япония) (110 км)
Погода на Хатидзёдзиме (Япония) (114 км)
Погода в Мисиме (Япония) (123 км)
Погода в Омаэдзаки (Япония) (131 км)
Погода в Кацууре (Япония) (136 км)
Погода в Сидзуоке (Япония) (140 км)
Погода в Иокогаме (Япония) (146 км)

Пояснения к столбцам:

Ветер - указаны скорость ветра в м/с - средняя за 10 мин, порывы в срок и между сроками (в фигурных скобках) и направление, откуда дует ветер: С - северный, СВ - северо-восточный, В - восточный, ЮВ - юго-восточный, Ю - южный, ЮЗ - юго-западный, З - западный, СЗ - северо-западный.
Видимость - горизонтальная дальность видимости в метрах или километрах. При видимости от 1 до 10 км при отсутствии осадков обычно наблюдается дымка, при ухудшении видимости до 1 км и менее - туман. В сухую погоду видимость может ухудшаться дымом, пылью или мглою.
Явления - указаны атмосферные явления, наблюдавшиеся в срок или в последний час перед сроком; фигурными скобками обозначены явления, наблюдавшиеся между сроками (за 1-3 часа до срока); квадратными скобками обозначены град или гололедные отложения с указанием их диаметра в мм.
Облачность - указаны через наклонную черту общая и нижняя облачность в баллах и высота нижней границы облаков в метрах; квадратными скобками обозначены формы облаков: Ci - перистые, Cs - перисто-слоистые, Cc - перисто-кучевые, Ac - высококучевые, As - высокослоистые, Sc - слоисто-кучевые, Ns - слоисто-дождевые, Cu - кучевые, Cb - кучево-дождевые. Подробнее классификацию облаков см. в Атласе облаков (PDF).
T - Температура воздуха - температура, измеренная на высоте 2 м над землей.
Td - Температура точки росы - температура, при понижении до которой содержащийся в воздухе водяной пар достигнет насыщения.
f - Относительная влажность воздуха - влажноcть воздуха, измеренная на высоте 2 м над землей.
Te - Эффективная температура - температура, которую ощущает одетый по сезону человек в тени. Характеристика душности погоды. При расчете учитывается влияние влажности воздуха и скорости ветра на теплоощущения человека.
Tes - Эффективная температура на солнце - температура, которую ощущает человек, с поправкой на солнечный нагрев. Характеристика знойности погоды. Зависит от высоты солнца над горизонтом, облачности и скорости ветра. Ночью, в пасмурную погоду, а также при ветре 12 м/с и более поправка равна нулю.
P - Атмосферное давление - приведенное к уровню моря атмосферное давление.
Po - Атмосферное давление - измеренное на уровне метеостанции атмосферное давление.
Tmin - Минимальная температура - минимум температуры воздуха на высоте 2 м над землей.
Tmax - Максимальная температура - максимум температуры воздуха на высоте 2 м над землей.
R - Количество осадков - Количество выпавших осадков за период времени, мм. При наведении курсора мыши на число - период времени, за который выпало указанное количество осадков.
R24 - Количество осадков - Количество выпавших осадков за 24 часа, мм.
S - Снежный покров - Высота снежного покрова, см. При наведении курсора мыши на число - состояние снежного покрова и степень покрытия местности в баллах.